Other Public Products
Issued by NWS Grand Forks, ND

Home | Current Version | Previous Version | Graphics & Text | Print | Product List | Glossary On
Versions: 1 2 3 4 5 6 7 8 9 10 11 12 13 14 15 16 17 18 19 20 21 22 23 24 25 26 27 28 29 30 31 32 33 34 35 36 37 38 39 40 41 42 43 44 45 46 47 48 49 50
000
FPUS83 KFGF 261731
OPUFGF
PRAIRIE TO PINES WEATHER ROUNDUP
NATIONAL WEATHER SERVICE EASTERN NORTH DAKOTA/GRAND FORKS ND
1200 PM CDT TUE JUL 26 2016

 **SATELLITE DATA USED TO AUGMENT SKY COVER AT AUTOMATED STATIONS**
 *****  WEATHER ACROSS EASTERN NORTH DAKOTA  *****

CITY           SKY/WX    TMP DP  RH WIND       PRES   REMARKS
GRAND FORKS    MOSUNNY   83  65  54 NE9       29.95F
GRAND FORKS AF SUNNY     83  64  52 VRB7      29.97F
GRAND CITY NWS   N/A     82 N/A N/A E2          N/A
BUXTON           N/A     86  71  60 NE3         N/A  HX  92
DEVILS LAKE    SUNNY     80  63  55 NE8       30.02R
FARGO          PTSUNNY   76  66  71 SW7       29.97R
WAHPETON ARPT  CLOUDY    73  63  68 CALM      29.98F
$$

 *****  WEATHER ACROSS CENTRAL AND WESTERN NORTH DAKOTA  *****

CITY           SKY/WX    TMP DP  RH WIND       PRES   REMARKS
JAMESTOWN      CLOUDY    82  67  60 E5        29.98S
BISMARCK       PTSUNNY   75  67  76 W16       30.06R
MINOT          CLOUDY    81  66  60 NW8       30.05R
MINOT AFB      CLOUDY    76  64  66 VRB2      30.05R
GARRISON         N/A     75  68  78 CALM      30.06R
WILLISTON      CLOUDY    76  62  62 N7        30.08R
DICKINSON      CLOUDY    67  63  87 N8        30.02F
HETTINGER      CLOUDY    71  56  58 N15       30.01F
$$

 *****  OTHER OBSERVATIONS NORTHEAST NORTH DAKOTA  *****

CITY           SKY/WX    TMP DP  RH WIND       PRES   REMARKS
WALHALLA       FAIR      77  73  88 NE8       30.00F
LANGDON        FAIR      84  68  58 VRB5      30.02F
CAVALIER       FAIR      79  68  69 NE5       29.99F
GRAFTON        FAIR      81  68  65 N7        30.00S
CANDO          FAIR      81  64  57 S3        30.05R
FORT TOTTEN      N/A     81  65  58 E6        29.95
ROLLA            N/A     75  64  69 N7        30.06R
RUGBY          NOT AVBL
 ***** THE ABOVE OBSERVATIONS ARE NON NWS ARE NOT QUALITY
        CONTROLLED AND MAY MIS-REPORT RAIN FOR SNOW...
$$

 *****  OTHER OBSERVATIONS SOUTHEAST NORTH DAKOTA *****

CITY           SKY/WX    TMP DP  RH WIND       PRES   REMARKS
COOPERSTOWN    NOT AVBL
VALLEY CITY    FAIR      81  73  78 E5        30.00F
OAKES            N/A    N/A N/A N/A MISG        N/A
GWINNER        FAIR      75  66  73 SW5       29.98F
SHEYENNE NWR     N/A     83  66  56 CALM      29.95
BUFFALO          N/A     83  65  54 CALM        N/A
WYNDMERE         N/A     79  66  65 S3          N/A
 ***** THE ABOVE OBSERVATIONS ARE NON NWS ARE NOT QUALITY
       CONTROLLED AND MAY MIS-REPORT RAIN FOR SNOW...
$$

  *****  WEATHER ACROSS NORTHERN MINNESOTA  *****

CITY           SKY/WX    TMP DP  RH WIND       PRES   REMARKS
FLAG ISLAND    SUNNY     75  52  43 N8        29.99S
WARROAD        SUNNY     77  70  78 NE6       30.00F
ROSEAU         SUNNY     81  68  65 CALM      29.99F
HALLOCK        SUNNY     81  66  61 CALM      29.97F
THF RVR FALLS  SUNNY     81  63  54 VRB5      29.99F
HALSTAD          N/A     80  66  63 SE6         N/A
FOSSTON        CLOUDY    81  72  74 CALM      29.99R
BAUDETTE       SUNNY     82  65  56 N7        29.98S
WASKISH        CLOUDY    79  66  65 NW5       29.98S
CROOKSTON      SUNNY     82  63  51 E9        29.96F
$$
  *****  WEATHER ACROSS CENTRAL AND WEST MINNESOTA  *****

CITY           SKY/WX    TMP DP  RH WIND       PRES   REMARKS
BEMIDJI        MOSUNNY   79  68  69 NW3       29.98R
PARK RAPIDS    CLOUDY    78  63  59 SW8       30.00S
WADENA         CLOUDY    73  66  78 NW3       30.01R
DETROIT LAKES  PTSUNNY   73  64  73 W3        30.01F
MOORHEAD       CLOUDY    73  66  78 CALM      29.98S
FERGUS FALLS   CLOUDY    75  66  73 MISG      30.00F
ELBOW LAKE     FAIR      81  72  72 SW7       30.00S
MORRIS MN      MOSUNNY   86  70  58 SW9       30.00S HX  90
STAPLES        CLOUDY    79  64  61 W6        30.01R
WHEATON        CLOUDY    84  72  65 SW8       30.00R
$$
  *****  WEATHER ELSEWHERE ACROSS MINNESOTA  *****

CITY           SKY/WX    TMP DP  RH WIND       PRES   REMARKS
DULUTH         CLOUDY    78  66  66 W9        29.96F
INTRNTL FALLS  CLOUDY    81  62  52 VRB3      29.97S
ELY            CLOUDY    77  66  69 NW5       29.97S
CLOQUET        PTSUNNY   81  63  54 SW9       29.98S
BRAINERD       CLOUDY    77  67  71 S10       29.99F
HIBBING        CLOUDY    77  67  71 VRB5      29.96F
ALEXANDRIA     CLOUDY    82  68  62 SW12      30.03R
SAINT CLOUD    PTSUNNY   82  68  62 SW13G18   30.00F
MINNEAPOLIS    MOSUNNY   86  64  47 SW14      30.04F
$$

  *****  WEATHER ACROSS SOUTH DAKOTA  *****

CITY           SKY/WX    TMP DP  RH WIND       PRES   REMARKS
SIOUX FALLS    MOSUNNY   83  64  52 S8        30.06F
BROOKINGS      MOSUNNY   82  67  60 SW10      30.06S
WATERTOWN      MOSUNNY   83  67  58 W9        30.05R
HURON          MOSUNNY   85  67  54 S9        30.00F
SISSETON         N/A     79  66  64 W15       29.98R
ABERDEEN       PTSUNNY   67  62  84 S16       30.00F
MITCHELL       SUNNY     86  65  49 S10G17    30.03S
PIERRE         CLOUDY    86  65  49 NW10G20   29.99F
MOBRIDGE       CLOUDY    87  65  47 NW26G32   29.96F
RAPID CITY     MOSUNNY   76  59  55 S9        30.05S
$$

  *****  SOME WEATHER IN NEARBY STATES *****

CITY           SKY/WX    TMP DP  RH WIND       PRES   REMARKS
GLASGOW MT     MOSUNNY   76  60  57 E15G21    30.07R
GREAT FALLS MT SUNNY     77  51  40 E7        30.10F
CHEYENNE WY    MOSUNNY   88  32  13 NW10      30.20S
SCOTTSBLUFF NE MOSUNNY   85  56  37 NE6       30.06R
OMAHA NE       MOSUNNY   83  63  50 SE8       30.09R
DES MOINES IA  MOSUNNY   85  65  51 SE3       30.08S
DAVENPORT IA   MOSUNNY   81  63  54 E5        30.08F
CHICAGO IL     MOSUNNY   84  61  45 NE7       30.05F
EAU CLAIRE WI  MOSUNNY   85  67  54 SW9       30.04F
LA CROSSE WI   MOSUNNY   85  67  54 W7G17     30.07S
$$

  *****  SOME NATIONAL WEATHER *****

CITY           SKY/WX    TMP DP  RH WIND       PRES   REMARKS
LA GUARDIA NY  MOSUNNY   88  64  44 NW13G24   29.88F
RALEIGH NC     PTSUNNY   92  76  59 SW8       30.00F HX 104
ATLANTA GA     MOSUNNY   91  68  46 SE6       30.07F HX  95
NEW ORLEANS LA LGT RAIN  82  76  81 S3        29.95S
OKLAHOMA CITY  CLOUDY    77  72  84 SE3       30.04F
ALBUQUERQUE NM MOSUNNY   78  58  49 NW6       30.26F
SALT LAKE CITY MOSUNNY   91  42  18 S12       30.05F
LOS ANGELES CA MOSUNNY   72  64  76 W12       29.91S
BOISE ID       SUNNY     84  42  22 W7        30.01S
SEATTLE WA     CLOUDY    61  58  90 VRB6      30.18S
$$

*** WEATHER ACROSS MANITOBA...SASKATCHEWAN AND ONTARIO ***
                ***ONTARIO***

CITY           SKY/WX    TMP DP  RH WIND       PRES   REMARKS
GERALDTON      MOSUNNY   77  54  44 W14G26    29.88S
THUNDER BAY    PTSUNNY   82  63  51 W12       29.91F
SIOUX LOOKOUT  MOSUNNY   77  52  41 NW10G18   29.96F
TORONTO        PTSUNNY   82  57  42 VRB10     29.99F
BIG TROUT LK   NOT AVBL
PICKLE LAKE    PTSUNNY   73  48  40 W16G25    29.88F
DRYDEN         SUNNY     77  50  38 NW8       29.98F
KENORA         MOSUNNY   77  52  41 N9        30.01S
$$
                *** MANITOBA***

CITY           SKY/WX    TMP DP  RH WIND       PRES   REMARKS
BRANDON        PTSUNNY   77  57  50 NE9       30.06S
DAUPHIN        SUNNY     73  59  60 NE9       30.09R
ISLAND LAKE    CLOUDY    61  55  82 NW9       29.99R
PILOT MOUND      N/A     75  59  57 NE9         N/A
THE PAS        MOSUNNY   66  45  45 NW10      30.10S
THOMPSON       CLOUDY    59  50  72 NW7       30.07R
WINNIPEG       MOSUNNY   77  59  53 N13       30.02S
LYNN LAKE      SUNNY     64  43  45 MISG      30.12S
CHURCHILL      CLOUDY    50  48  93 N15       30.04R
GILLAM         CLOUDY    57  52  82 N12G20    30.01R
$$
                ***SASKATCHEWAN***

CITY           SKY/WX    TMP DP  RH WIND       PRES   REMARKS
ESTEVAN        CLOUDY    75  59  57 NE5       30.09S
KINDERSLEY     LGT RAIN  61  57  88 SE7       30.14S
LLOYDMINSTER   MOSUNNY   72  54  53 S9        30.12S
PRINCE ALBERT  MOSUNNY   70  50  49 VRB3      30.13S
REGINA         PTSUNNY   75  54  46 NE5       30.11S
YORKTON        MOSUNNY   72  57  60 N10       30.11R  C1F1C2F2C3F3C4F4C5F5C6F6C7F7C8F8C9F9CaFaCbFbCcFcCdFdCe!



USA.gov is the U.S. government's official web portal to all federal, state and local government web resources and services.